This demonstration page uses our WeatherBlox Daily Observations layout. Learn more.

Left ArrowRight Arrow

Hourly Observations for June 3, 2016

Temp ( °F °C ) Dew Point ( °F °C ) Humidity (%) Winds ( mph kmh ) Pressure ( in mb ) Visibility ( mi km ) Precip ( " mm )
12:51 am 00:51 Clear 79 26.1 21 -6.1 11 11 NW 8 13 29.80 1009 10 16 0.00 0.00
1:51 am 01:51 Clear 77 25 21 -6.1 12 12 NW 8 13 29.80 1009 10 16 0.00 0.00
2:51 am 02:51 Clear 74 23.3 22 -5.6 14 14 Calm 29.80 1009 10 16 0.00 0.00
3:51 am 03:51 Clear 71 21.7 22 -5.6 16 16 N 3 6 29.81 1009 10 16 0.00 0.00
4:51 am 04:51 Clear 68 20 23 -5 18 18 S 3 6 29.83 1010 10 16 0.00 0.00
5:51 am 05:51 Sunny 67 19.4 23 -5 19 19 SSE 3 6 29.86 1011 10 16 0.00 0.00
6:51 am 06:51 Sunny 75 23.9 24 -4.4 15 15 SSW 3 6 29.87 1011 10 16 0.00 0.00
7:51 am 07:51 Sunny 79 26.1 25 -3.9 14 14 Calm 29.88 1012 10 16 0.00 0.00
8:51 am 08:51 Sunny 85 29.4 25 -3.9 11 11 SSW 3 6 29.88 1012 10 16 0.00 0.00
9:51 am 09:51 Sunny 93 33.9 25 -3.9 8 8 WNW 10 17 29.86 1011 10 16 0.00 0.00
10:51 am 10:51 Sunny 97 36.1 24 -4.4 7 7 WNW 9 15 29.83 1010 10 16 0.00 0.00
11:51 am 11:51 Sunny 102 38.9 20 -6.7 5 5 WNW 10 17 29.80 1009 10 16 0.00 0.00
12:51 pm 12:51 Sunny 102 38.9 17 -8.3 5 5 WSW 7 11 29.78 1008 10 16 0.00 0.00
1:51 pm 13:51 Sunny 106 41.1 16 -8.9 4 4 W 10 17 29.75 1007 10 16 0.00 0.00
2:51 pm 14:51 Sunny 106 41.1 17 -8.3 4 4 W 15 24 29.72 1006 10 16 0.00 0.00
3:51 pm 15:51 Sunny 107 41.7 16 -8.9 4 4 W 18 30 29.69 1006 10 16 0.00 0.00
4:51 pm 16:51 Sunny 105 40.6 16 -8.9 4 4 W 14 22 29.68 1005 10 16 0.00 0.00
5:51 pm 17:51 Sunny 104 40 17 -8.3 4 4 WNW 17 28 29.69 1005 10 16 0.00 0.00
6:51 pm 18:51 Sunny 101 38.3 17 -8.3 5 5 W 21 33 29.68 1005 10 16 0.00 0.00
7:51 pm 19:51 Clear 94 34.4 17 -8.3 6 6 NW 13 20 29.71 1006 10 16 0.00 0.00
8:51 pm 20:51 Clear 91 32.8 18 -7.8 7 7 WNW 15 24 29.73 1007 10 16 0.00 0.00
9:51 pm 21:51 Clear 86 30 18 -7.8 8 8 NNW 10 17 29.74 1007 10 16 0.00 0.00
10:51 pm 22:51 Clear 84 28.9 18 -7.8 8 8 NW 12 19 29.74 1007 10 16 0.00 0.00
11:51 pm 23:51 Clear 83 28.3 18 -7.8 9 9 NW 12 19 29.73 1007 10 16 0.00 0.00

Powered by AerisWeather